THORAD AGENA D DEB, 18513

Orbit data source: Space-Track

THORAD AGENA D DEB, 18513 is space debris in SSO originally from a launch on Wed, 08 Apr 1970 UTC launched from the Air Force Western Test Range (AFWTR). Debris objects in space refer to the collection of defunct objects orbiting the Earth. Examples of debris include non-operational satellites, rocket bodies, and fragments generated from explosions, collisions, or faulty payload assembly.

Loading next visibility...
Identifier
18513, 1970-025PN
Orbit
SSO
Country
Flag of USUS
Related business
Manufacturer
Unknown
Mission
Spacecraft
Bus & Motor
Unknown
Mass
Unknown
Launch date (UTC)
1970-04-08 (56 years ago)
Launch vehicle
Unknown
Launch site
Air Force Western Test Range (AFWTR)
Object type
Payload
Rocket body
Debris
Shape & HBR
Unknown shape, 0.1 m
Radar Cross Section
Small (<0.1 m²)

Expand to show TLE details & history
Last TLE update: 6 hours ago

TLE from 6 hours ago
0 THORAD AGENA D DEB
1 18513U 70025PN  25299.92137346  .00003524  00000-0  14543-2 0  9997
2 18513  99.7372 176.4212 0051281  12.4553 359.6685 14.26816273 91458
Epoch: 2025-10-26T22:06Z
TLE epoch observation values (Epoch: 2025-10-26T22:06:46.666Z)
Latitude
11.90068°
Longitude
167.13468°
Altitude
767.693 km
Speed
7.49 km/s
True Right ascension
11h 37m 26s
True Declination
11° 49' 54"
Sunlit
Object was in daylight at epoch
Visualization orbit readout
Latitude
Unknown
Longitude
Unknown
Altitude
Unknown
Speed
Unknown
Apparent Right ascension
Unknown
Apparent Declination
Unknown
Sunlit
N/A
Visualization observer readout
Local Sidereal Time
23:38:09
Azimuth
Unknown
Elevation
Unknown
Doppler factor
Unknown
Orbital elements
Apogee altitude
836.402 km
Perigee altitude
762.786 km
Semi-major axis
7,177.731 km
Eccentricity
0.00513
Inclination
99.7372°
RAAN
176.4212°
Arg. of periapsis
12.4553°
True anomaly
359.66508°
Mean anomaly
359.6685°
Eccentric anomaly
359.66679°
Mean motion
3.56913 °/min
Orbital period
100.86 mins
BSTAR
0.0014543

Documentation

Showing up to 5 results
|